Location: Zagreb
(45.8000°N, 16.0000°E)
Time: 16:48:55
(UTC+02:00)

Courier 1B Rocket - Pass Details

Date: 24 July 2024
Orbit: 920 x 1201 km, 28.2° (Epoch: 15 June)

Event Time Altitude Azimuth Distance (km) Brightness Sun altitude
Rises 15:20:06 0° 233° (SW) 4,060 8.8 51.6°
Reaches altitude 10° 15:23:47 10° 217° (SW) 3,117 8.4 51.0°
Maximum altitude 15:29:04 20° 174° (S) 2,458 7.6 50.2°
Drops below altitude 10° 15:34:21 10° 131° (SE) 3,114 7.6 49.4°
Sets 15:38:01 0° 116° (ESE) 4,054 8.0 48.8°
